Flag for U.S.A. Weather past 2 weeks in Sevierville, Tennessee, U.S.A.

Now
87 °F

Broken clouds.


Feels Like: 91 °F
Forecast: 68 / 90 °F
Wind: 7 mph from West

Location: McGhee Tyson Airport

Current Time: Aug 30, 2014 at 2:39:36 PM

Latest Report: Aug 30, 2014 at 12:53 PM


Visibility: 10 mi

Pressure: 30.09 "Hg

Humidity: 53%

Dew point: 68 °F

Location of SeviervilleLocation

Historic Weather in Sevierville — Graph

°F

Sevierville temperature yesterday

Maximum temperature yesterday: 90 °F (at 5:53 PM)
Minimum temperature yesterday: 70 °F (at 4:53 AM)
Average temperature yesterday: 79 °F

Past Weeks' High & Low Weather Summary

 TemperatureHumidityPressure
High90 °F (Aug 23, 2:53 PM)100% (Aug 18, 4:53 AM)30.15 "Hg (Aug 18, 4:53 AM)
Low62 °F (Aug 16, 5:53 AM)42% (Aug 27, 3:53 PM)29.82 "Hg (Aug 18, 4:53 PM)
Average76 °F77%30.00 "Hg
* Reported Aug 15 12:53 PM — Aug 30 12:53 PM, Sevierville, Weather by CustomWeather, © 2014

Note: Actual official high and low records may vary slightly from our data, if they occured in-between our weather recording intervals... More about our weather records

Advertising

Sevierville weather history for previous 24 hours

 ConditionsComfort  
Time TempWeatherWind HumidityBarometerVisibility
12:53 PM
Aug 30
87 °FBroken clouds.7 mph53%30.09 "Hg10 mi
11:53 AM86 °FBroken clouds.No wind53%30.11 "Hg10 mi
10:53 AM81 °FScattered clouds.No wind65%30.11 "Hg10 mi
9:53 AM77 °FBroken clouds.No wind74%30.11 "Hg10 mi
8:53 AM71 °FBroken clouds.No wind84%30.10 "Hg10 mi
7:53 AM69 °FPassing clouds.5 mph90%30.10 "Hg9 mi
6:53 AM69 °FPassing clouds.5 mph90%30.09 "Hg10 mi
5:53 AM68 °FPassing clouds.3 mph93%30.08 "Hg10 mi
4:53 AM70 °FPassing clouds.6 mph90%30.07 "Hg10 mi
3:53 AM69 °FPassing clouds.No wind90%30.07 "Hg10 mi
2:53 AM70 °FPassing clouds.3 mph87%30.07 "Hg10 mi
1:53 AM72 °FPassing clouds.3 mph78%30.07 "Hg10 mi
12:53 AM73 °FPassing clouds.10 mph79%30.06 "Hg10 mi
11:53 PM
Aug 29
74 °FPassing clouds.No wind74%30.05 "Hg10 mi
10:53 PM77 °FPassing clouds.3 mph66%30.04 "Hg10 mi
9:53 PM77 °FPassing clouds.5 mph74%30.03 "Hg10 mi
8:53 PM82 °FPassing clouds.No wind53%30.01 "Hg10 mi
7:53 PM84 °FPassing clouds.6 mph49%30.00 "Hg10 mi
6:53 PM89 °FScattered clouds.8 mph43%29.99 "Hg10 mi
5:53 PM90 °FScattered clouds.No wind42%29.98 "Hg10 mi
4:53 PM88 °FBroken clouds.6 mph45%29.99 "Hg10 mi
2:53 PM89 °FScattered clouds.8 mph46%30.02 "Hg10 mi
Weather by CustomWeather, © 2014

See weather overviewHow to use our weather pages